Theta_e
311 300 296 297 299 302 304 305 305 306 306 306 305 304 304 304 304 307 308 302 305 302 302 303 304 303 304 306 308 310 310 307 307 305 305 305 306 306 306 308 311 313 315 321 324 328 329 330 331 331 331 331 332 332 332 332 332 332 332 331 331 333 333 332 332 332 331 330 329 330 329 328 331 331 333 334 335 335 336 336 336 336 335 335 335 335
308 299 298 302 304 304 305 307 307 306 306 304 304 303 302 304 302 306 305 301 303 302 302 305 304 304 305 307 308 309 309 307 307 305 305 306 306 307 307 307 309 311 316 320 323 326 329 329 331 331 330 329 330 330 331 331 331 332 332 331 331 332 332 332 332 333 332 333 331 330 330 330 331 331 331 332 334 334 336 336 337 337 336 335 336 335
299 297 302 305 307 307 306 306 307 305 304 304 303 303 302 302 305 306 302 302 302 301 300 304 302 303 305 306 307 307 307 308 309 308 309 308 307 307 307 308 309 310 313 319 320 324 326 329 330 330 330 330 330 331 330 331 331 331 331 331 331 332 332 332 333 333 332 333 334 333 333 333 332 334 335 335 335 336 335 336 336 337 337 336 336 336
295 300 305 308 308 305 304 305 305 305 305 302 301 300 299 304 301 298 303 302 302 301 301 302 299 301 304 306 306 308 308 309 310 309 311 312 310 308 307 308 308 309 312 315 317 319 323 327 328 329 329 329 330 330 330 330 331 331 331 331 332 332 333 333 332 331 335 335 335 336 336 336 335 334 335 335 336 336 336 335 336 337 337 337 336 336
298 305 310 308 307 305 302 303 303 302 300 302 303 301 301 301 302 302 299 300 300 301 301 300 299 299 303 302 305 309 310 309 310 309 309 312 313 311 311 311 310 309 310 312 314 316 319 322 325 327 329 330 329 329 329 330 330 331 331 332 332 332 332 333 332 332 334 334 334 335 335 336 335 335 334 333 332 334 335 335 334 335 336 336 336 336
303 308 310 308 306 306 304 301 302 302 298 299 303 303 302 303 303 304 300 299 299 299 298 298 292 294 302 304 305 309 310 307 308 307 307 309 311 310 308 309 310 311 311 311 312 313 316 321 324 326 327 328 328 328 329 331 331 332 332 333 333 333 333 333 334 333 333 332 332 331 330 329 330 329 330 329 329 331 332 333 334 335 336 336 336 336
304 308 308 305 305 305 304 302 304 304 299 297 299 305 305 304 304 303 300 300 294 292 297 299 292 289 301 301 304 306 306 306 308 307 307 308 310 310 308 309 309 309 309 310 311 312 313 319 323 323 325 327 327 328 330 331 331 331 332 333 333 333 333 334 334 334 332 333 332 331 331 330 329 328 329 331 332 332 332 333 333 334 336 336 335 336
305 304 305 306 304 303 301 299 303 304 299 296 305 305 306 304 303 302 301 300 298 299 300 297 297 291 290 297 303 305 303 304 305 307 307 308 309 310 310 309 309 309 309 310 309 310 312 316 321 321 324 326 327 329 330 330 330 331 331 333 333 333 332 334 334 334 333 332 332 331 331 330 330 329 329 330 331 332 332 331 331 332 334 335 336 336
304 302 303 302 302 301 299 302 305 305 300 300 305 306 303 304 303 303 301 299 295 294 291 297 298 290 290 297 303 304 301 302 304 305 306 308 309 310 310 310 309 309 309 310 311 310 310 312 317 320 322 325 327 328 329 329 330 331 331 331 332 333 332 333 334 334 334 332 332 332 331 330 330 331 331 331 331 331 331 330 331 331 332 333 335 336
305 306 305 305 302 299 303 305 306 305 300 303 306 306 304 302 300 300 299 297 294 291 287 293 296 289 290 298 300 304 302 301 303 305 307 308 308 309 309 309 309 309 309 309 309 311 311 312 314 318 320 323 326 327 329 330 330 331 331 331 331 332 333 333 334 333 333 332 331 331 331 329 329 330 330 331 331 330 331 329 330 331 332 333 334 334
302 306 309 306 303 304 305 306 307 306 305 306 304 300 298 298 296 296 295 294 292 287 289 295 296 294 288 297 299 299 301 305 306 306 308 309 310 309 309 308 308 308 309 310 309 308 310 312 312 315 316 318 322 326 327 328 329 330 331 331 329 331 332 332 333 333 332 333 331 331 331 330 329 329 329 329 329 330 329 328 329 330 331 332 332 332
303 305 304 307 307 307 308 303 307 308 305 303 300 297 297 293 295 292 290 293 286 285 292 295 295 296 286 293 301 305 307 308 306 305 306 307 308 309 310 310 308 307 307 309 308 308 308 309 310 312 312 314 317 322 324 326 328 329 330 330 329 330 330 331 331 332 332 332 332 331 331 330 330 329 328 328 328 329 329 328 328 329 330 331 330 330
298 300 304 304 305 307 304 300 299 302 302 302 299 298 291 287 288 285 286 282 284 285 288 292 296 292 291 297 302 304 305 307 308 306 307 307 308 309 310 310 308 309 308 309 309 309 309 308 308 309 309 311 313 316 320 323 326 327 328 329 328 328 330 330 331 330 331 331 331 331 330 330 330 330 329 329 329 330 329 328 328 328 329 329 327 326
294 300 301 302 304 307 305 296 293 294 298 299 296 294 290 285 283 281 284 287 287 287 289 291 295 289 295 298 303 303 305 308 308 308 309 308 307 309 309 311 310 310 309 309 310 310 310 309 308 308 308 309 310 311 315 319 321 324 325 327 327 327 329 329 330 330 330 330 330 331 331 330 330 329 330 329 329 330 331 329 328 329 328 328 327 325
285 286 294 299 295 306 305 302 299 296 296 298 301 298 292 290 285 281 285 282 284 288 287 292 289 288 289 296 300 304 306 307 305 304 305 306 307 308 310 308 306 306 306 308 308 309 309 309 308 309 308 309 309 309 311 314 317 320 322 324 324 325 327 328 329 329 329 329 330 330 330 330 330 330 329 330 330 330 329 329 328 329 329 328 327 326
291 291 297 301 301 305 302 305 303 299 297 299 301 302 295 291 297 287 289 289 288 287 285 286 288 295 296 304 302 303 303 302 303 303 301 302 304 306 306 306 306 305 305 305 305 306 306 306 307 309 309 308 309 309 309 311 314 316 319 321 323 324 325 327 327 328 328 328 329 329 328 329 329 328 330 329 330 330 329 329 329 329 329 329 328 327
293 289 296 299 300 303 302 302 302 304 288 295 296 291 296 301 299 292 288 290 289 288 286 291 289 293 299 300 301 302 302 302 302 302 302 302 303 304 305 305 306 306 307 307 307 306 306 306 306 306 305 306 307 308 308 309 310 314 316 318 319 322 324 325 326 326 328 328 327 327 328 329 329 329 329 329 329 329 330 329 329 329 329 329 328 327
291 289 292 294 294 299 301 304 303 304 303 298 290 295 300 302 301 294 286 287 286 285 287 292 288 290 291 288 302 302 301 302 303 304 303 303 303 303 305 306 307 308 310 310 309 309 309 308 307 307 307 306 306 306 307 307 309 311 312 315 316 318 320 323 325 326 326 326 326 327 327 328 329 329 329 330 330 330 329 329 329 330 329 328 327 325
298 285 290 292 295 295 300 303 300 302 303 298 296 304 295 287 287 293 289 283 282 282 284 289 291 291 293 293 298 298 299 301 303 304 303 302 302 303 304 305 307 307 307 307 308 308 308 308 308 309 309 309 308 307 307 308 308 309 311 313 315 316 319 321 324 326 326 327 327 327 327 327 327 328 329 329 330 330 328 328 328 329 328 327 326 323
299 288 287 291 293 294 297 297 288 293 300 299 302 298 303 297 292 289 289 290 290 284 284 285 289 287 296 296 298 299 300 301 302 303 303 303 303 304 304 306 306 306 307 308 308 308 308 308 308 309 310 309 308 307 308 308 308 308 309 310 312 315 317 320 322 324 324 326 326 326 326 326 326 327 327 328 328 328 328 327 328 328 326 325 323 322
294 298 284 288 293 295 287 294 291 294 291 291 294 293 295 294 296 296 296 291 288 286 286 285 285 290 297 302 300 300 302 302 303 303 304 305 305 305 304 304 306 307 307 307 306 306 306 308 308 307 306 306 306 306 306 306 306 307 308 309 310 311 314 317 320 321 322 324 324 324 325 326 326 326 327 327 328 328 327 326 326 327 325 321 321 319
291 293 286 286 286 287 291 295 297 299 298 294 294 292 294 291 288 286 285 296 291 288 285 285 283 291 299 302 302 302 303 303 305 305 305 306 304 304 305 306 305 305 304 304 304 304 305 305 306 306 304 303 303 304 303 304 305 306 306 307 308 309 311 314 317 319 321 321 322 323 324 324 325 326 326 326 327 326 325 325 324 323 320 319 317 316
298 295 289 285 287 290 290 291 295 297 300 299 298 295 298 295 293 289 284 287 290 290 292 289 285 288 300 301 302 303 303 303 301 302 302 303 302 302 303 303 304 304 303 302 302 302 304 305 305 306 304 303 302 303 304 304 304 306 306 307 308 309 309 312 314 317 318 318 319 321 322 322 322 322 322 323 324 323 322 322 321 319 318 316 313 313
296 289 287 287 291 292 293 294 296 296 298 296 297 299 298 293 294 292 291 292 288 290 287 288 285 289 299 301 299 298 297 296 298 299 300 300 300 301 301 302 302 303 303 303 303 303 303 304 304 303 302 302 302 303 304 304 305 306 307 308 308 309 310 312 313 314 315 317 318 319 319 319 319 319 319 319 320 318 318 317 317 316 315 313 311 310
291 291 289 283 282 285 287 291 291 295 295 294 293 296 298 298 298 297 295 290 287 289 290 287 282 289 298 298 297 296 296 297 297 299 299 300 300 301 301 301 302 302 303 303 303 303 304 303 302 302 304 304 303 303 304 305 306 307 307 308 308 308 310 311 312 312 312 311 311 312 313 315 315 316 316 317 317 315 312 312 311 310 310 307 307 307
293 291 288 281 278 276 276 278 281 284 288 292 296 296 297 296 294 293 287 288 285 288 290 287 287 294 298 296 295 295 295 296 298 299 298 300 300 300 302 303 302 303 303 304 304 304 303 303 304 305 304 305 305 304 305 305 306 307 307 307 308 307 308 309 309 309 308 306 307 308 309 310 311 313 314 314 313 311 309 307 307 306 304 305 305 301
291 292 291 289 286 284 286 288 293 293 291 287 290 293 294 296 297 295 291 288 285 289 288 291 292 293 295 294 295 295 295 296 297 298 297 297 298 300 301 303 304 304 305 305 305 305 305 304 303 304 305 305 305 305 305 305 306 306 306 306 306 306 306 306 306 306 306 305 305 306 306 307 307 308 308 308 307 304 304 303 301 301 301 299 300 299
291 289 291 292 291 292 293 292 294 294 290 291 290 291 294 294 294 291 289 287 293 289 285 292 294 291 294 298 297 297 297 298 299 299 298 299 300 302 303 303 299 301 304 306 305 305 304 304 305 304 305 305 305 305 305 305 305 305 304 304 305 305 304 304 304 304 304 304 305 305 304 303 302 302 302 300 299 299 297 297 297 298 297 297 297 297
292 288 291 293 292 294 294 294 295 294 293 292 292 292 291 293 292 288 290 293 293 288 286 293 295 293 295 298 300 299 299 299 299 300 301 301 301 303 303 302 303 303 304 306 309 308 306 306 306 306 306 305 305 304 304 303 303 303 303 304 304 303 304 304 303 303 303 302 303 302 301 299 297 297 296 295 295 294 294 294 294 294 294 295 296 296
294 289 291 292 291 292 294 294 295 293 292 292 292 292 293 292 292 292 293 294 294 293 294 296 297 296 297 299 301 302 303 302 301 302 301 301 302 302 302 302 303 303 304 304 305 309 308 308 307 307 307 306 305 304 304 303 303 301 301 301 301 302 302 301 301 300 299 300 300 299 297 296 295 294 293 293 293 293 293 293 293 293 293 294 293 294
294 288 293 291 289 288 292 294 294 294 293 290 292 293 293 293 293 293 293 294 295 294 295 295 295 294 300 303 303 305 305 304 302 301 301 302 303 302 302 302 303 304 305 305 305 308 309 308 307 307 306 306 306 305 304 304 304 303 302 301 301 300 300 299 299 299 298 299 296 294 294 294 293 293 293 293 293 292 292 292 292 292 293 292 293 293
294 290 294 291 287 286 290 291 292 294 293 291 290 292 292 292 290 291 291 294 293 291 293 294 292 292 299 303 303 303 303 303 301 302 302 303 304 304 304 304 304 305 305 305 305 308 310 308 308 307 306 306 307 305 305 304 304 303 302 301 300 300 298 298 298 298 297 295 292 292 293 292 292 292 292 292 292 292 291 291 291 291 291 291 291 291
292 291 289 289 286 285 289 291 291 290 288 286 288 291 293 293 294 295 295 296 295 296 292 289 290 297 300 301 300 301 301 301 301 302 302 303 305 305 305 305 305 305 305 305 304 305 308 308 308 309 309 308 307 306 305 305 304 303 303 301 300 298 296 295 296 296 294 292 292 291 291 291 291 291 290 291 291 290 290 290 290 290 289 290 290 290
293 292 289 291 285 286 287 288 289 286 279 282 294 298 296 293 294 292 292 294 296 297 295 297 298 300 301 300 299 300 299 300 301 303 305 304 304 304 305 305 305 305 306 306 306 305 307 310 310 309 309 309 308 306 306 304 304 304 303 301 299 296 295 295 295 295 293 292 291 291 290 290 290 290 290 290 289 289 289 289 290 290 290 289 289 289
290 291 290 290 288 283 285 286 283 277 280 292 301 300 299 298 297 295 296 297 297 298 298 297 298 299 301 300 301 301 302 303 304 303 303 304 305 304 304 304 305 306 306 306 306 305 306 307 307 309 307 306 306 305 304 302 303 302 301 299 297 297 295 296 295 295 293 292 291 291 290 290 290 290 289 289 289 289 289 289 289 288 288 288 288 288
289 289 290 289 288 287 284 283 277 279 289 296 297 299 300 299 299 297 295 297 298 298 298 297 298 300 301 302 302 302 302 303 303 304 304 305 305 305 304 304 306 306 306 307 306 306 306 306 306 306 307 307 305 304 303 301 301 300 299 299 297 296 295 295 295 295 294 292 291 291 291 290 290 289 289 288 288 288 288 288 288 288 288 288 288 288
293 290 290 286 289 281 282 284 284 291 290 293 293 293 296 293 294 293 289 293 299 300 299 298 299 300 301 301 302 302 302 301 299 301 304 304 305 306 306 306 307 306 307 307 308 308 308 308 307 308 308 306 304 303 302 301 299 299 298 297 296 295 295 295 294 294 294 292 292 291 291 291 290 289 288 288 287 287 288 287 287 287 287 287 287 287
293 289 290 287 284 288 283 281 283 283 281 288 295 298 301 301 300 300 295 292 301 301 302 300 299 300 300 301 301 302 302 298 295 297 303 303 304 305 305 306 306 306 305 305 306 309 309 308 305 304 305 302 301 301 300 299 298 298 296 295 295 294 294 294 294 295 293 293 293 292 292 291 291 289 288 287 287 287 287 287 287 287 287 287 286 286
289 292 289 288 285 285 283 281 281 280 284 293 296 299 300 301 302 301 293 288 298 301 301 301 300 300 301 300 301 301 298 292 294 298 304 305 304 304 304 305 304 304 304 304 304 303 302 303 303 301 300 300 299 299 299 297 297 296 295 295 294 294 294 294 295 295 294 294 294 293 291 291 290 289 288 287 287 287 287 287 287 287 287 287 286 286
286 287 287 285 281 284 284 282 282 286 286 293 297 298 299 301 302 296 284 285 297 301 302 301 300 300 301 301 301 300 297 293 295 300 302 304 305 305 304 304 304 303 302 301 301 301 302 300 298 298 298 298 299 298 297 296 296 294 295 294 294 293 293 294 295 296 296 295 294 293 291 291 288 288 287 287 287 287 287 287 286 286 286 286 286 285
285 285 286 283 283 284 285 284 287 288 294 296 295 297 299 301 297 286 282 291 298 300 301 302 301 301 301 300 301 297 300 301 302 304 299 299 299 300 300 300 301 301 300 300 299 295 297 298 298 298 298 299 299 297 296 295 295 293 294 294 293 293 293 294 295 296 296 295 293 291 290 288 288 287 287 287 287 287 287 287 286 285 285 285 285 284
285 286 285 286 284 283 285 284 285 289 295 297 296 299 300 295 285 285 295 296 298 298 299 302 301 302 302 301 301 301 302 303 302 302 301 298 300 299 298 297 296 295 294 293 291 293 297 298 297 297 297 297 296 295 294 294 293 293 293 293 292 293 294 294 295 295 294 292 291 289 288 287 287 287 287 287 287 286 285 286 285 285 285 284 283 283
285 284 282 283 286 286 286 284 283 281 291 297 296 295 297 290 292 296 293 293 298 296 298 299 302 301 302 301 302 303 301 301 301 301 301 299 298 297 296 294 295 296 296 294 293 292 294 295 295 295 294 294 294 294 294 292 290 291 291 291 291 293 293 294 293 294 292 289 288 287 287 286 286 286 286 286 286 285 284 284 284 284 284 283 283 282
291 285 285 286 290 282 283 281 283 291 297 298 296 290 295 298 300 299 299 292 295 297 296 297 298 300 301 301 300 300 300 300 300 300 300 299 298 297 295 295 295 295 294 293 293 293 294 295 295 293 292 293 293 293 292 290 289 289 289 291 293 292 292 292 291 291 289 287 287 286 286 286 286 286 286 286 285 285 284 283 283 283 283 282 282 281
291 288 290 286 291 289 286 289 293 291 296 298 299 299 300 301 301 298 300 298 296 296 298 297 297 298 300 300 300 300 299 300 300 299 298 298 297 296 294 294 294 294 293 293 292 291 293 294 292 291 291 291 291 292 290 289 289 288 288 291 290 289 289 288 288 287 287 286 286 286 286 286 286 285 285 285 285 284 283 283 282 281 282 282 281 281
293 295 292 291 291 293 295 292 297 294 295 296 298 299 300 300 298 294 297 297 298 298 297 298 299 297 298 299 299 298 299 299 298 297 296 296 296 295 294 293 291 291 291 290 290 290 291 290 289 289 289 290 290 290 289 290 288 287 289 290 289 289 288 287 286 286 286 285 285 285 285 285 285 285 285 285 285 285 284 283 282 281 280 281 281 280
293 295 291 289 291 291 286 296 294 292 294 295 296 297 298 299 297 294 294 298 299 298 297 301 299 298 297 298 298 297 297 297 297 297 296 295 295 294 293 292 292 291 290 290 290 287 288 288 288 288 288 287 288 289 289 288 289 288 288 288 288 287 286 286 286 285 285 285 285 284 284 284 284 284 283 284 284 284 283 283 283 282 280 280 280 280
288 296 292 291 292 290 290 295 296 295 295 296 297 295 295 297 297 296 297 296 296 297 297 295 295 295 296 296 297 297 296 296 295 294 294 294 294 293 292 292 291 290 290 290 287 287 288 288 288 287 287 287 287 288 287 286 286 286 287 287 287 286 286 285 285 285 284 284 284 284 283 284 280 281 282 282 282 282 282 282 282 281 280 280 280 279
293 294 288 292 290 293 295 296 295 293 294 294 295 296 297 298 297 295 294 294 293 293 292 292 294 294 295 296 296 296 295 294 294 294 294 294 293 292 292 292 291 290 288 286 286 286 288 287 287 287 287 287 287 286 285 284 284 285 285 285 285 285 285 285 284 284 283 283 283 282 283 283 281 282 282 281 282 282 282 281 281 281 281 282 282 282
291 288 292 291 288 289 290 292 293 289 289 293 294 296 297 298 298 296 294 292 291 291 291 291 290 291 293 294 295 295 295 295 294 294 293 293 293 291 291 291 289 288 287 287 285 286 286 286 286 286 285 285 285 285 283 282 282 283 283 284 284 285 285 284 283 282 282 282 282 282 282 282 281 282 281 281 281 281 280 280 282 282 281 281 283 283
292 292 292 289 289 289 294 296 297 296 296 296 297 296 296 297 297 295 293 292 291 292 293 292 291 290 291 291 292 294 295 295 294 293 293 292 292 291 291 289 288 287 286 285 284 284 284 285 284 284 284 284 284 282 281 280 281 281 281 282 283 284 284 283 283 282 281 281 281 281 282 281 281 281 281 281 281 280 280 279 279 280 280 282 283 282
Wind_Speed
9 10 11 13 12 13 13 15 12 11 9 12 13 12 15 14 11 7 7 6 5 5 10 11 13 14 18 16 14 13 12 12 13 13 11 11 10 10 10 10 10 11 12 8 10 11 13 13 12 12 12 12 13 13 14 15 15 15 14 13 15 11 13 11 10 10 10 10 9 9 10 9 8 8 8 8 8 9 9 9 8 8 8 8 8 8
9 11 16 14 12 16 16 16 15 14 8 10 12 14 14 15 11 8 7 8 4 6 8 10 12 15 17 15 14 13 13 15 15 15 15 15 14 11 12 12 12 11 7 8 9 11 12 12 13 12 11 13 15 15 15 16 16 16 16 15 14 14 14 14 13 11 11 10 9 9 9 8 7 7 7 7 8 9 8 9 8 9 8 9 9 8
11 14 17 16 14 15 14 15 16 14 12 11 12 12 13 14 12 6 5 5 4 3 9 11 15 15 17 15 13 14 15 15 16 16 16 15 15 14 12 12 12 10 10 11 12 11 12 13 14 13 13 13 15 15 16 16 16 16 15 15 14 13 14 14 14 12 12 11 10 10 8 9 7 7 7 8 9 9 10 9 10 9 10 10 9 9
15 16 15 17 15 17 14 14 15 12 8 8 10 11 14 11 10 10 8 6 7 5 5 7 12 12 16 18 18 18 18 17 17 17 17 16 16 16 14 11 10 12 11 13 13 13 13 14 14 14 13 14 13 13 15 15 17 14 14 14 15 14 14 13 15 13 13 12 11 10 9 9 8 7 8 10 10 10 11 10 10 10 10 11 11 11
13 8 17 18 16 19 17 15 14 8 7 8 9 12 13 12 12 10 1 4 3 8 6 9 13 13 13 17 13 13 17 19 18 18 18 17 17 15 12 11 11 12 12 12 13 13 13 14 15 16 15 13 14 15 15 15 15 12 17 17 17 15 15 14 14 14 13 11 11 10 10 10 9 8 8 9 10 11 10 10 12 11 10 11 9 10
16 11 18 20 20 19 17 15 14 10 8 9 15 16 13 10 10 9 3 4 6 6 6 1 6 9 8 15 15 10 7 12 14 16 16 16 16 16 17 17 12 10 11 12 13 13 14 15 15 15 15 15 15 15 15 15 15 15 15 17 17 15 14 14 16 16 14 13 13 12 12 12 10 9 9 10 11 12 9 9 9 9 8 10 10 11
14 12 18 20 19 20 20 17 17 16 12 12 14 17 14 11 8 8 4 2 7 8 4 0 8 9 5 13 10 7 8 10 10 14 15 14 14 16 17 16 14 13 12 11 11 11 12 14 15 16 16 17 17 16 14 14 16 18 16 17 17 16 14 14 15 17 14 14 13 15 14 14 14 13 9 9 10 11 8 5 8 8 5 7 9 11
10 16 18 21 21 19 19 17 18 20 14 12 5 12 11 11 10 8 9 8 9 5 4 5 5 12 13 15 13 16 17 18 18 17 15 14 15 17 17 16 15 14 13 11 13 14 14 14 15 17 18 17 17 15 14 15 16 19 18 17 17 15 14 14 14 16 15 14 14 15 15 13 14 15 14 13 14 13 9 11 13 11 9 9 10 10
20 19 21 22 20 15 18 16 15 19 14 4 12 11 13 12 10 10 7 7 2 6 9 6 4 6 10 7 13 15 17 17 19 20 19 18 17 17 17 17 14 14 14 13 11 14 15 15 15 15 15 16 16 13 14 16 16 16 17 17 17 17 16 14 17 16 17 14 14 14 14 14 11 13 13 11 11 12 11 13 11 11 11 11 11 12
6 18 20 18 16 16 14 17 15 18 15 4 8 6 5 6 10 4 3 1 2 1 11 6 9 7 17 6 11 12 14 18 16 15 17 17 17 16 15 16 16 13 13 14 13 12 14 14 14 15 14 13 13 13 13 13 11 13 14 16 17 18 14 14 17 17 17 16 13 13 14 16 14 11 11 12 12 12 12 13 12 11 11 10 10 12
4 7 5 14 14 14 15 15 14 18 12 12 15 11 9 8 5 5 4 2 0 8 8 8 12 8 14 4 10 8 11 12 10 8 10 12 14 15 14 14 13 13 11 10 12 12 12 12 12 10 12 13 12 10 13 13 13 12 13 15 18 18 15 15 17 18 18 16 15 14 14 16 15 16 15 14 15 13 12 13 13 12 11 8 7 7
7 5 3 2 3 11 14 5 2 15 13 14 7 9 9 4 3 2 3 2 4 10 2 14 13 13 12 2 6 15 15 10 5 8 8 9 11 11 11 12 13 13 12 10 11 11 11 10 10 9 12 13 13 11 12 12 12 13 13 13 16 17 17 15 16 17 17 16 16 15 15 16 16 16 14 15 15 14 14 14 13 12 11 10 8 8
11 11 4 3 4 11 11 12 5 11 14 11 11 11 9 5 3 6 4 6 10 9 2 2 11 9 19 17 8 7 9 10 7 6 7 7 7 9 10 10 9 9 10 10 9 9 8 9 11 12 12 12 11 12 14 14 12 12 13 15 17 17 17 16 16 17 18 17 17 17 17 16 15 16 16 15 14 13 14 14 13 12 10 9 9 10
6 5 8 7 3 11 15 13 9 9 14 16 16 15 12 9 7 10 9 3 4 2 3 4 0 8 14 14 17 18 24 18 16 14 13 13 12 11 11 8 6 6 8 7 7 6 7 7 8 10 10 9 8 10 9 9 10 10 11 14 16 17 16 15 15 16 17 18 18 17 16 15 14 15 15 14 14 12 10 12 14 12 10 11 12 10
8 7 11 15 9 13 18 14 13 6 15 15 11 14 10 8 5 9 7 11 8 3 5 7 4 6 6 2 3 8 14 12 7 4 6 8 10 11 8 1 3 3 3 2 2 4 6 7 8 8 9 8 8 10 9 8 10 10 11 12 15 15 15 16 17 15 17 16 17 16 15 14 13 13 13 14 13 12 12 13 15 14 13 14 13 11
13 2 6 10 2 16 18 10 12 14 6 2 2 1 11 12 4 6 0 4 7 4 4 6 8 7 8 4 2 4 6 7 9 9 7 9 9 9 9 10 8 7 7 6 5 5 6 6 5 5 6 8 7 9 9 10 9 10 11 12 13 14 14 14 15 15 16 15 13 15 15 16 14 11 11 11 10 12 14 14 14 14 16 14 13 13
12 10 7 9 4 20 11 14 12 17 10 9 6 9 7 4 8 4 1 2 3 2 12 5 7 12 11 18 20 17 14 13 11 12 10 10 11 11 10 10 10 8 6 5 5 6 7 6 7 7 8 7 8 7 9 10 11 11 11 11 13 13 13 13 14 15 13 13 13 14 14 14 14 14 14 13 13 13 13 12 12 13 13 12 12 12
15 7 4 3 10 2 1 15 15 9 1 10 9 8 6 6 5 6 9 2 4 11 8 8 14 10 3 11 3 19 19 18 17 15 11 10 9 10 9 9 8 8 6 6 7 8 8 8 8 8 8 10 10 11 10 11 10 10 11 12 13 13 15 14 13 13 12 12 12 12 13 14 13 12 13 12 11 12 11 11 11 10 10 11 10 10
10 7 2 3 4 1 4 11 0 7 7 5 7 10 11 5 10 7 3 11 8 12 8 10 14 13 12 15 1 2 10 12 13 13 11 11 12 11 9 9 7 4 4 5 7 6 6 7 7 7 7 6 6 6 7 7 9 8 9 10 11 12 12 12 10 11 10 11 9 8 11 13 13 13 12 11 10 10 12 12 12 11 10 9 10 11
8 6 5 2 4 3 7 12 13 9 7 4 2 11 9 2 9 9 8 3 4 10 7 8 11 12 11 15 14 13 8 7 6 8 11 13 12 11 8 4 2 3 4 4 3 4 5 6 7 5 5 4 4 4 3 3 3 6 7 8 8 8 9 9 11 10 11 11 10 9 10 11 12 13 12 11 11 10 11 12 11 10 10 10 9 10
9 6 7 4 0 8 8 9 12 16 13 7 10 10 8 3 3 3 4 9 6 8 9 9 10 9 11 10 11 13 14 13 11 10 9 9 10 6 1 3 2 2 2 3 3 3 3 3 3 1 1 1 1 1 2 3 4 5 5 6 7 9 9 9 10 9 10 9 10 10 9 10 9 10 9 9 10 8 10 10 10 9 8 8 10 10
3 10 9 8 6 8 1 1 3 14 12 11 12 12 12 8 4 9 11 5 4 5 8 7 13 10 2 4 5 6 5 8 11 11 10 6 2 3 4 1 2 3 4 4 4 3 4 3 3 1 2 1 2 3 3 4 4 5 6 6 7 8 8 9 8 8 6 5 5 8 8 9 8 8 8 9 8 8 9 9 9 8 8 10 9 11
3 4 12 11 8 8 1 3 1 5 12 10 11 13 12 8 7 6 13 9 4 8 7 7 7 10 7 6 2 4 4 3 4 2 2 2 1 1 1 2 2 3 5 5 5 4 4 3 2 1 1 3 3 3 4 4 4 5 6 6 6 7 8 8 8 7 6 6 7 9 8 8 9 8 9 10 9 9 8 8 9 8 10 9 9 9
9 4 9 7 6 2 3 3 1 5 4 5 8 11 15 17 18 14 7 1 6 8 10 9 11 15 5 4 4 5 3 2 0 2 3 2 1 1 1 2 2 3 3 3 3 3 3 3 2 3 4 5 5 5 6 5 5 5 5 6 6 7 7 7 6 5 6 6 7 7 7 8 8 8 8 9 8 8 7 6 7 8 9 9 9 10
9 6 12 8 4 1 1 2 2 4 5 10 13 16 18 15 15 11 3 1 3 9 14 10 16 17 3 3 3 2 2 4 3 3 2 2 1 1 1 1 2 2 3 3 4 4 3 4 5 5 5 5 6 6 6 6 6 5 5 4 5 5 5 6 6 4 2 3 4 3 4 5 6 8 10 11 8 7 6 6 7 7 8 8 8 8
2 9 14 14 17 16 14 14 17 18 20 12 12 12 15 16 17 13 9 5 11 10 13 11 14 18 5 2 5 5 5 3 4 3 2 2 3 3 4 4 4 3 3 3 3 3 5 5 4 4 4 4 4 5 5 5 5 5 4 4 4 4 5 5 4 4 4 3 4 5 5 6 6 8 9 8 7 7 7 7 7 7 6 9 10 8
5 7 11 9 12 11 2 3 13 16 10 5 11 14 15 13 11 10 4 9 14 13 12 15 17 20 12 7 9 8 8 9 9 7 5 5 7 7 6 5 4 3 3 3 2 2 2 4 5 5 5 4 4 4 3 4 4 5 5 6 6 6 6 6 5 5 4 5 5 6 7 6 6 6 6 6 5 5 6 7 7 8 8 7 9 10
2 8 12 14 14 10 4 6 12 17 15 12 13 13 13 15 14 11 11 14 15 9 15 16 27 22 24 17 8 11 11 10 9 8 8 8 8 7 5 4 3 5 5 4 3 3 4 4 4 5 5 5 5 5 4 4 4 5 6 6 7 6 7 6 7 6 6 6 5 5 5 4 3 3 3 3 3 4 4 4 5 5 6 7 8 8
11 12 16 14 13 6 10 12 17 16 15 16 17 16 19 20 19 20 21 25 21 16 22 24 19 20 28 22 15 10 10 10 11 11 10 8 6 5 3 4 5 5 4 3 3 4 4 4 5 5 6 6 7 7 8 7 7 8 7 7 6 5 6 6 5 5 5 6 6 5 4 3 2 3 4 4 4 5 5 5 5 5 6 6 6 6
8 9 10 14 10 5 7 14 17 19 15 16 20 22 21 21 23 24 26 27 23 22 29 15 8 23 25 16 11 15 10 10 9 8 7 7 7 6 5 6 7 7 6 5 5 3 4 4 5 5 6 7 8 8 8 7 8 8 8 8 6 6 5 4 5 5 4 5 4 3 3 4 3 4 4 5 5 5 5 5 6 6 6 6 6 6
10 10 14 14 11 11 9 10 15 18 18 18 21 24 25 24 26 30 28 24 20 24 25 19 17 19 18 8 8 8 11 10 10 9 8 9 7 7 8 10 10 8 6 7 6 4 4 3 4 5 6 7 8 9 8 8 7 7 8 8 7 6 5 5 5 5 5 6 3 3 2 3 3 4 5 5 5 5 6 6 6 6 6 6 7 7
12 6 11 10 10 8 10 11 15 14 15 17 19 22 25 26 24 27 25 22 18 24 22 12 11 19 12 7 11 11 11 13 13 10 10 9 11 11 11 10 9 8 7 6 5 3 3 4 5 6 7 7 7 8 7 7 7 7 7 8 8 6 5 5 5 5 4 2 3 3 4 3 3 3 4 5 6 7 6 6 7 7 7 8 8 7
14 11 11 12 13 13 14 11 13 7 5 9 17 24 31 31 27 20 19 16 24 25 13 12 24 19 6 1 7 10 11 13 13 12 14 14 14 12 10 9 8 8 7 6 5 4 4 6 6 7 7 6 7 7 8 7 6 7 8 8 8 5 5 6 6 5 4 3 4 3 3 4 4 4 4 3 5 5 6 7 7 7 8 8 7 8
16 15 8 11 11 5 9 8 7 7 14 15 19 24 24 24 26 22 20 25 24 17 18 22 18 8 3 6 8 9 13 13 14 14 13 12 13 15 12 9 9 8 7 4 5 6 6 4 5 6 6 6 5 6 5 7 7 5 7 7 6 7 6 7 6 6 6 6 6 5 5 5 5 5 4 4 5 5 7 7 9 9 8 7 7 8
19 17 9 9 10 8 11 12 10 15 17 21 5 13 22 25 21 24 25 20 21 24 28 24 23 20 10 8 9 12 11 12 12 15 16 15 15 14 14 13 12 8 6 7 7 7 7 8 8 4 4 5 5 5 5 5 6 6 7 7 7 7 7 7 6 7 7 7 6 6 7 6 6 6 6 5 5 6 7 7 7 5 6 7 9 9
14 15 9 9 5 6 7 11 11 17 15 4 4 11 17 19 21 19 20 23 29 29 27 27 28 22 18 16 10 8 11 11 12 13 14 14 14 15 15 14 12 11 11 7 9 10 8 8 9 7 6 5 5 5 5 6 6 6 6 7 6 6 7 7 7 8 7 7 8 8 8 9 8 8 7 7 5 5 5 5 6 7 5 5 5 4
10 11 12 10 8 10 9 13 20 1 2 5 5 6 16 16 18 20 14 20 26 21 22 24 26 23 21 18 14 10 6 8 12 14 11 14 15 14 14 13 11 11 10 9 8 9 9 7 4 3 3 4 5 6 6 6 6 7 7 8 6 7 7 7 9 8 8 8 8 9 9 9 9 9 9 7 7 6 6 6 6 5 4 6 6 7
4 11 8 11 7 8 14 8 6 10 12 14 21 12 14 9 15 20 14 17 13 24 25 24 22 19 19 19 16 15 8 9 14 16 12 18 19 15 14 11 13 12 12 12 6 2 3 2 2 2 4 5 5 5 6 7 7 7 7 8 7 7 7 7 8 9 8 8 9 8 8 8 8 8 8 8 9 8 6 5 4 5 6 8 8 8
4 2 5 10 7 9 10 12 10 12 18 19 9 15 17 9 8 10 4 19 14 19 21 21 20 18 19 18 17 15 11 12 19 15 7 8 10 14 15 15 16 15 12 11 12 11 7 5 3 3 3 4 6 6 7 8 9 8 8 8 9 7 8 10 10 9 9 8 7 7 7 7 7 6 7 8 7 7 8 7 7 5 4 3 4 5
5 6 4 8 4 9 12 12 11 7 12 7 10 9 17 17 15 11 3 21 14 19 20 21 20 19 20 21 20 17 17 17 17 12 6 7 5 7 10 11 10 9 9 7 5 4 2 4 5 4 6 7 7 8 9 9 8 9 8 8 8 8 9 8 8 6 6 6 6 6 6 7 6 6 7 7 6 5 5 5 5 6 5 4 3 3
7 5 7 12 11 13 17 3 3 6 9 4 12 16 17 20 17 12 21 19 15 24 23 22 22 21 23 24 18 13 20 20 16 4 4 6 5 2 1 0 1 1 3 2 3 4 4 5 7 9 8 5 6 8 8 8 8 8 6 7 7 9 7 5 4 5 4 5 7 6 6 4 5 7 6 6 6 6 5 5 6 6 6 6 5 6
10 8 4 6 10 9 7 10 8 8 8 10 8 16 19 15 11 25 13 4 9 4 9 20 27 25 16 14 12 16 12 9 8 10 6 4 4 4 4 3 2 2 1 1 3 1 2 2 3 2 2 3 5 5 6 7 8 6 6 6 6 4 5 5 5 5 4 5 6 5 4 5 4 5 5 5 6 6 5 4 5 5 6 5 6 8
16 11 12 12 6 3 1 2 2 9 8 24 15 12 17 18 9 5 6 3 1 11 10 10 9 9 11 9 10 11 12 12 11 9 11 7 7 7 6 5 5 3 3 3 2 3 2 2 3 2 4 4 4 4 5 5 5 4 5 6 5 6 7 7 6 6 6 5 4 4 4 4 5 5 5 5 5 6 7 6 7 6 6 7 8 9
14 12 7 7 10 10 14 14 12 17 1 22 21 18 15 0 4 4 8 3 3 5 9 8 7 6 9 10 10 10 11 13 11 10 9 7 5 4 5 4 3 2 3 3 3 3 3 2 3 4 4 3 4 4 4 6 6 4 5 4 5 6 6 6 6 5 5 5 5 5 5 5 5 5 5 6 6 6 7 7 7 6 4 7 7 6
9 14 17 19 16 14 15 17 6 2 15 14 9 9 14 12 5 5 3 9 8 3 3 7 9 5 8 10 9 10 10 11 11 7 8 8 6 8 9 8 6 5 4 4 4 4 3 4 5 5 5 4 4 4 4 3 5 5 5 5 6 5 6 5 6 6 5 6 6 6 6 6 6 7 7 7 8 9 9 10 8 6 4 5 5 5
18 21 2 1 10 10 10 4 0 1 7 14 10 7 23 17 5 1 3 8 4 8 8 9 7 10 9 7 8 5 8 7 5 4 6 6 7 6 5 5 4 4 4 4 4 4 4 4 4 4 5 5 4 4 3 3 5 8 5 6 6 7 6 7 7 7 6 6 5 5 6 6 5 4 5 6 5 7 7 10 9 8 6 6 6 6
6 13 7 10 6 13 14 20 16 6 9 11 13 3 10 14 8 5 3 4 4 8 8 2 9 10 12 10 10 10 8 6 7 8 7 6 6 7 8 7 6 6 6 6 5 5 5 5 5 5 4 4 3 3 3 3 2 3 4 4 5 6 7 7 7 7 6 6 6 6 6 7 5 5 4 3 4 3 4 4 5 5 6 7 7 6
9 16 15 17 15 15 22 23 15 7 8 11 10 8 12 14 6 2 3 2 1 2 7 5 5 7 6 9 10 8 7 6 7 6 7 8 8 8 8 8 9 6 4 4 5 4 5 6 6 6 5 5 5 3 3 3 2 3 4 4 6 6 7 7 7 7 6 7 6 5 6 5 7 6 4 3 4 5 5 4 4 5 7 8 8 8
10 19 15 18 15 15 15 4 14 11 12 14 14 10 11 12 10 7 7 4 2 5 5 4 1 6 12 11 9 7 6 7 8 9 9 7 7 7 8 8 6 6 6 5 3 4 5 6 7 6 6 6 4 4 4 4 3 3 4 5 6 7 7 6 6 6 7 5 4 5 4 4 5 4 5 4 3 2 3 5 6 5 2 4 3 3
9 16 15 13 13 14 16 19 20 15 17 19 17 10 3 4 8 10 8 6 5 6 7 7 3 1 4 3 7 9 9 8 7 6 9 8 8 8 8 8 7 7 6 5 4 3 5 5 7 7 6 5 4 5 4 4 2 2 2 4 5 6 8 8 7 7 6 4 4 4 5 4 4 3 4 5 4 4 2 4 4 2 2 5 6 6
16 19 17 15 19 18 28 27 18 19 8 5 12 11 9 10 13 13 11 11 9 8 9 10 8 4 6 6 4 7 7 7 9 6 6 6 6 6 7 9 10 8 6 5 7 6 6 5 7 7 7 6 6 5 4 4 2 3 3 4 4 5 7 8 6 5 5 5 4 5 4 4 4 4 3 4 4 4 4 3 2 3 5 6 4 6
Wind_Direction
151 172 189 203 198 185 192 200 203 224 236 217 209 226 228 229 236 227 220 136 194 236 241 243 250 252 261 260 261 260 249 246 245 241 243 243 237 231 227 219 217 221 226 210 207 201 202 200 198 196 196 196 199 203 201 201 200 198 196 195 206 197 206 210 205 203 200 201 202 206 208 209 202 205 211 215 215 225 225 219 215 210 199 202 195 195
173 194 212 205 185 185 192 196 204 216 213 213 214 224 230 230 244 229 208 139 176 226 258 251 255 255 262 262 260 259 252 248 243 240 239 242 239 235 226 221 215 221 214 196 200 202 197 197 196 195 198 196 196 201 201 203 202 199 197 198 201 204 203 207 208 205 207 205 204 202 205 207 201 193 204 217 217 222 232 222 212 217 208 203 198 196
198 212 209 193 185 186 189 195 204 215 212 223 227 224 234 232 238 231 87 147 173 203 263 262 264 266 265 265 259 255 249 247 243 241 246 245 241 238 228 222 218 205 201 192 208 203 199 195 193 196 199 202 204 198 201 202 200 202 201 201 196 200 202 203 206 207 208 208 209 209 205 203 205 205 204 212 216 211 220 220 218 217 217 204 201 197
197 220 196 182 183 178 185 194 200 209 211 216 217 226 226 235 235 240 199 186 203 231 289 299 293 279 276 268 260 254 249 248 247 242 242 242 247 241 232 221 216 210 201 200 205 204 200 195 195 197 201 202 200 203 204 202 202 200 202 201 196 197 200 201 201 205 206 205 205 210 212 204 207 204 203 215 221 220 220 218 214 218 221 216 215 213
197 175 175 173 174 174 180 188 199 196 204 224 231 228 233 224 227 243 113 197 180 244 260 280 280 272 258 264 259 246 236 238 240 241 243 238 234 239 240 234 223 220 208 206 209 209 199 194 197 200 201 197 200 204 204 201 200 201 200 200 199 199 200 198 191 193 202 200 206 209 213 220 217 216 211 210 221 223 224 220 220 220 220 220 215 217
205 187 176 183 177 182 182 188 198 186 213 208 227 232 229 221 230 213 158 236 251 261 168 330 303 267 252 253 259 257 235 228 231 242 249 248 236 224 227 225 217 222 224 217 215 212 203 195 196 199 200 200 205 205 204 200 200 201 201 199 199 200 200 199 195 189 190 197 196 198 206 207 210 210 201 205 210 218 217 216 225 229 220 218 220 219
200 178 192 180 183 188 193 196 193 192 204 212 212 215 221 229 215 222 227 216 259 258 94 171 249 277 304 284 275 271 259 256 242 234 242 242 237 229 223 221 211 204 206 214 227 222 211 200 193 195 197 202 205 207 200 197 202 204 204 200 197 198 200 200 198 189 186 195 198 202 203 207 208 212 210 201 207 220 212 200 210 219 208 210 220 221
190 183 190 183 184 186 193 202 196 197 204 217 157 187 222 232 230 236 245 246 259 22 259 220 258 282 277 264 278 279 279 274 270 259 244 239 234 228 227 219 209 202 200 199 209 216 216 208 197 197 198 198 203 202 194 197 201 203 203 199 199 200 200 198 196 192 189 193 196 201 206 206 211 214 211 199 211 216 211 207 214 216 211 202 212 217
184 180 185 185 190 189 201 200 185 194 207 218 134 188 208 222 238 245 246 253 359 7 283 241 217 282 253 260 263 261 267 260 251 244 241 239 238 233 227 224 204 197 199 193 196 210 210 210 206 203 199 199 200 194 194 199 200 202 203 202 201 202 200 200 195 194 192 194 195 198 201 207 211 215 214 209 207 213 210 212 208 208 208 207 206 212
202 186 181 184 189 199 198 198 191 188 200 112 146 123 106 95 63 50 225 212 37 360 260 209 181 249 274 236 261 256 252 262 251 246 245 236 232 230 226 224 218 203 205 206 202 204 209 209 208 207 201 195 196 195 197 202 201 204 203 202 202 203 201 198 197 195 197 194 194 200 199 205 209 208 212 211 207 206 207 211 208 205 206 204 201 210
105 360 200 191 194 198 195 195 192 189 190 131 112 107 82 60 69 57 56 65 8 252 244 170 192 196 286 244 210 241 237 251 266 246 243 234 228 233 230 223 218 211 198 196 207 212 210 212 216 206 199 200 196 192 196 199 200 200 201 203 203 204 200 197 199 197 199 197 195 201 201 201 205 207 210 211 215 208 196 204 206 206 204 192 185 187
137 144 197 193 283 202 192 129 181 185 140 149 141 135 118 73 61 84 62 101 227 256 114 169 189 178 243 214 190 226 254 262 260 260 252 236 230 231 231 226 218 212 207 193 196 203 207 207 209 204 204 204 199 186 192 200 200 200 199 200 203 204 202 198 198 196 199 200 201 203 204 204 204 204 204 207 209 206 196 196 201 202 198 190 183 175
167 182 161 141 312 208 134 120 103 132 155 172 155 162 170 175 154 226 171 211 210 240 103 256 181 216 237 242 268 261 268 251 254 260 266 266 251 242 240 228 216 210 204 196 192 190 191 199 199 204 209 206 202 198 196 199 197 196 198 200 203 205 203 202 197 198 199 200 204 204 203 206 205 205 205 205 208 205 200 198 200 195 187 185 184 175
180 137 171 155 161 189 154 155 149 168 191 187 186 182 183 183 188 221 210 239 267 127 186 155 150 261 272 283 243 241 255 254 262 265 266 259 260 263 256 257 228 196 204 204 196 187 191 193 200 211 215 207 202 205 203 205 203 201 204 206 207 211 204 202 200 201 200 202 205 205 204 205 203 206 205 206 205 198 185 194 203 197 188 191 190 174
151 187 205 159 200 181 192 185 173 146 174 194 186 192 198 182 184 208 197 210 219 237 158 186 146 238 217 239 359 229 252 257 256 285 289 273 263 259 263 233 242 222 217 206 201 201 207 206 206 208 211 210 203 204 206 200 202 203 209 212 213 216 208 202 203 201 203 206 207 205 207 206 204 205 205 208 206 200 195 201 204 204 198 198 192 181
191 50 156 169 51 170 195 178 128 117 132 189 201 294 217 211 193 215 341 227 222 185 174 190 227 248 231 352 276 288 272 259 256 256 238 256 253 251 252 252 244 226 212 191 205 223 230 224 219 210 209 213 210 203 201 199 200 203 210 213 218 220 218 210 206 206 206 207 206 206 205 207 205 203 205 208 203 203 201 201 202 203 203 200 191 185
187 206 161 147 248 175 155 144 148 143 187 171 168 208 202 350 224 244 88 156 42 315 252 199 255 257 279 275 261 262 264 254 232 231 236 240 242 243 245 247 247 244 216 179 193 210 217 208 206 212 216 214 211 206 205 201 199 199 203 209 216 220 220 218 213 213 210 208 205 205 204 206 205 205 206 205 202 198 198 201 202 203 203 195 187 180
177 145 13 109 156 161 324 161 158 161 100 137 207 196 107 18 346 228 234 147 227 243 249 200 234 257 223 289 195 212 225 239 243 243 229 225 237 244 242 244 241 235 219 209 210 212 213 206 203 201 207 210 205 204 203 205 201 205 208 209 213 215 215 216 215 212 212 210 208 204 203 207 208 211 211 208 203 193 194 195 202 205 193 188 181 171
129 90 144 347 112 60 127 111 237 287 279 206 194 140 162 187 205 204 230 220 201 225 252 242 250 254 235 246 177 158 212 231 244 240 224 232 229 233 238 242 236 225 227 219 214 210 211 211 212 204 208 217 227 222 221 208 199 198 208 215 219 220 219 217 213 211 210 210 205 208 204 205 211 216 215 211 207 191 197 197 201 203 187 184 176 169
158 132 129 350 143 217 166 156 187 195 219 247 229 180 207 265 211 193 202 285 236 243 243 259 228 253 224 241 241 244 220 207 194 207 222 230 229 229 231 243 255 265 248 244 245 229 231 236 227 207 193 187 189 204 217 227 223 212 210 214 223 231 230 222 216 209 208 207 204 203 203 206 211 214 215 211 210 201 192 196 199 197 184 182 171 170
173 135 153 141 145 143 180 191 190 179 171 174 189 187 186 202 5 296 224 215 221 236 242 278 275 253 257 229 225 226 229 231 237 246 246 243 235 220 243 275 268 254 288 298 304 304 302 286 279 239 209 155 113 171 194 197 215 219 217 217 215 217 221 223 221 216 214 204 203 195 192 201 202 209 210 213 210 199 187 194 199 195 181 163 174 163
145 176 153 137 173 204 175 344 276 191 177 182 184 190 186 158 153 189 223 195 231 234 242 245 261 265 133 89 154 208 211 234 238 244 247 234 200 261 260 303 358 315 302 299 298 286 278 279 271 199 124 117 208 213 209 201 198 204 205 209 210 215 219 221 222 216 206 201 202 212 207 206 212 216 218 221 215 207 192 193 193 176 168 176 168 166
140 115 128 171 185 168 91 287 339 332 193 193 196 201 188 179 170 197 221 204 189 233 277 274 319 271 121 151 190 236 261 228 70 55 247 261 270 253 293 290 289 262 272 283 287 291 278 259 263 231 168 182 204 215 205 203 201 200 200 198 205 210 217 218 223 223 219 219 217 218 213 205 204 201 205 210 213 208 194 186 181 171 174 169 165 172
87 131 112 118 121 70 71 91 32 343 172 184 224 214 200 199 193 199 204 307 222 198 220 241 244 266 143 82 77 67 73 10 47 155 196 185 222 353 303 307 308 291 276 270 257 268 263 248 218 210 205 199 196 205 206 205 203 204 198 194 192 204 213 214 223 233 232 233 237 226 214 207 196 191 192 198 199 197 191 177 174 168 172 168 165 168
169 183 134 135 101 132 279 94 211 217 260 209 200 201 200 198 196 203 202 93 260 221 227 210 239 255 121 151 118 140 127 153 187 180 202 224 128 141 195 238 237 257 280 282 273 269 260 238 229 226 210 201 195 195 198 197 199 197 198 189 193 202 206 208 211 220 233 247 233 227 222 217 207 206 205 206 203 199 178 174 163 166 165 158 164 163
204 156 162 161 168 175 182 189 197 196 203 202 208 192 199 198 191 184 206 169 231 220 223 231 247 257 254 189 179 172 166 176 202 203 177 211 234 222 214 217 233 234 250 263 256 248 256 257 249 236 221 216 204 197 203 205 200 199 195 188 189 200 199 202 201 194 177 188 201 205 210 212 212 212 210 206 199 189 176 168 165 164 159 163 159 150
191 175 195 186 185 194 173 44 53 66 79 170 184 193 196 207 203 211 219 219 223 227 233 235 245 263 240 191 186 184 176 188 204 204 202 204 224 233 231 226 227 241 251 249 250 239 243 241 242 241 233 225 215 196 203 211 213 214 211 208 200 199 199 201 200 197 189 183 193 197 203 202 205 208 207 200 188 171 167 168 164 161 161 162 157 157
127 185 199 197 205 202 155 168 143 153 168 171 169 186 186 191 199 212 213 223 218 230 248 236 231 236 254 235 206 199 189 202 207 199 198 202 210 215 215 204 235 253 232 206 210 213 234 243 236 225 221 215 206 190 194 201 217 221 220 218 213 207 205 205 205 194 185 169 197 204 203 196 190 194 183 158 141 149 152 145 149 155 149 149 155 162
180 199 198 198 197 176 156 157 149 161 172 178 182 180 183 184 186 198 211 222 205 202 220 231 221 233 249 243 225 219 201 200 196 201 206 207 207 201 193 226 251 255 269 250 211 193 206 217 214 210 207 206 200 199 196 191 201 210 213 218 213 204 214 204 198 206 194 192 201 198 176 148 125 119 120 128 129 130 133 136 136 135 142 150 150 152
172 219 185 195 199 149 174 164 164 168 172 172 186 191 190 183 194 203 215 217 205 213 229 234 210 227 239 249 232 232 222 219 205 204 210 225 240 249 260 271 263 262 257 251 272 223 203 207 208 203 202 202 202 203 200 197 194 200 205 204 200 199 198 171 197 199 203 197 200 169 157 154 147 140 131 132 139 138 136 138 141 142 145 145 142 140
182 203 184 184 202 201 194 181 172 176 168 185 192 193 193 194 200 207 216 219 210 234 238 235 253 271 257 249 251 252 235 216 209 199 209 230 242 244 246 252 259 258 245 243 240 219 183 201 202 202 208 211 205 205 204 202 195 185 202 210 205 198 179 181 182 197 179 198 176 145 140 145 148 141 148 147 138 139 142 143 142 143 140 137 142 143
200 203 177 177 197 212 198 194 186 178 182 187 194 195 197 197 205 211 216 212 199 224 232 240 265 255 261 152 223 231 230 227 228 234 235 243 247 243 234 235 241 245 245 240 235 239 173 198 208 212 216 211 207 203 202 197 189 178 188 197 202 192 172 179 177 181 193 179 142 145 149 143 139 146 147 146 151 151 148 138 138 142 145 144 145 144
193 188 176 176 198 210 188 180 176 164 141 209 209 201 200 203 205 209 221 212 214 218 211 203 229 234 71 260 211 216 212 217 224 234 241 247 258 256 239 231 227 239 249 239 231 235 223 212 213 210 208 199 201 199 202 184 179 190 180 185 194 162 161 173 172 169 171 157 155 157 143 137 143 140 142 151 142 141 137 142 140 143 150 160 156 145
187 194 186 173 204 160 138 148 141 155 208 215 211 204 196 200 204 207 211 213 217 210 221 219 238 252 209 170 197 210 212 220 229 229 227 235 243 254 263 267 266 258 252 243 226 225 231 223 211 212 210 204 197 195 182 182 186 176 157 158 154 162 169 170 173 173 171 162 165 156 149 146 145 151 154 144 143 143 147 156 166 165 157 143 139 153
190 189 199 177 194 158 147 128 163 210 224 228 167 161 196 205 201 209 222 215 216 217 228 235 241 239 214 200 221 228 229 237 235 238 231 225 230 244 252 248 244 238 219 231 232 225 229 234 241 211 182 192 196 179 159 167 172 144 139 152 160 172 170 178 169 177 172 173 168 155 153 153 153 154 150 151 156 161 165 167 156 153 157 159 162 164
191 188 173 187 132 111 152 172 197 223 221 96 143 169 176 185 201 208 230 222 216 212 216 226 232 233 231 235 225 223 231 240 249 243 234 229 227 233 240 244 244 246 253 243 238 244 242 237 243 232 212 167 160 165 160 161 158 150 151 153 165 169 176 175 181 183 178 176 172 169 168 165 165 157 152 156 161 168 169 165 160 162 158 154 158 153
215 191 189 185 165 173 179 180 212 244 353 255 234 194 168 187 187 190 215 230 218 216 215 225 227 226 229 234 228 223 215 251 261 252 199 220 229 233 241 250 249 254 257 255 249 250 246 248 231 182 144 146 159 151 157 145 146 157 149 163 165 169 178 183 191 191 186 182 178 177 174 173 165 160 160 162 165 171 168 161 158 155 155 158 162 158
303 213 197 174 207 175 175 193 215 241 246 228 215 179 193 180 180 196 212 260 201 214 216 221 226 220 228 233 226 229 223 259 259 257 221 212 218 227 239 248 253 249 250 256 265 278 244 195 132 120 157 150 149 149 144 144 152 159 159 163 164 170 186 192 200 193 186 189 184 179 174 171 166 164 165 166 173 173 169 161 155 163 168 168 163 166
319 277 255 207 179 172 175 190 201 212 228 228 179 186 181 163 120 101 185 259 211 195 202 213 218 213 219 221 221 212 213 233 247 251 252 173 184 206 225 234 238 241 242 244 247 245 220 199 171 148 133 145 161 159 150 150 154 160 177 167 172 180 192 202 202 192 189 190 180 172 168 167 167 166 165 170 173 167 163 167 166 158 159 165 162 156
191 202 167 216 191 197 180 195 212 201 243 220 164 163 152 143 127 127 181 251 222 182 191 195 208 208 215 220 217 207 202 226 241 247 85 100 146 179 201 222 230 234 240 240 236 225 160 134 134 162 181 187 180 154 157 153 162 172 175 171 168 186 205 203 198 190 180 174 163 163 162 167 163 161 164 166 156 151 154 146 139 150 157 148 143 118
188 185 208 202 186 196 193 215 278 270 258 136 155 153 146 137 145 162 216 240 142 179 193 189 198 205 211 215 207 207 215 217 224 92 124 118 113 121 144 31 212 200 242 227 203 147 181 189 192 197 196 187 151 150 156 157 161 173 172 158 173 201 203 188 178 179 168 151 150 157 162 158 166 162 162 160 158 152 148 152 151 148 152 150 141 140
187 174 182 185 200 191 195 200 221 250 238 138 152 147 146 135 172 211 214 74 135 186 202 180 192 203 201 207 198 218 230 231 244 252 241 169 191 176 174 170 140 183 108 48 36 337 224 199 215 180 88 84 119 130 145 152 156 158 152 158 179 153 158 169 171 162 144 137 139 146 154 152 146 148 150 146 140 141 139 130 131 145 146 136 138 143
177 177 186 194 176 193 200 201 243 262 218 159 148 153 181 182 220 92 86 4 59 164 161 177 195 192 183 200 206 222 234 241 241 230 231 201 186 187 174 167 197 200 191 169 165 183 193 178 172 119 102 97 113 127 137 139 153 149 147 173 167 141 140 154 153 150 137 130 130 136 142 138 138 133 130 132 132 132 131 131 131 134 137 140 139 140
168 178 170 201 186 167 185 192 206 214 3 136 152 184 193 115 353 115 124 127 265 174 162 160 195 169 171 189 203 217 225 232 238 229 225 218 187 134 133 158 174 159 116 91 68 125 167 162 114 97 94 108 119 134 137 157 160 163 163 161 138 130 129 134 142 140 129 131 136 137 139 137 133 129 132 133 130 128 133 133 130 132 129 138 136 138
174 199 180 186 185 194 193 208 205 44 166 175 152 76 148 222 206 274 155 143 163 229 212 151 175 161 169 190 199 204 216 220 222 208 202 204 182 183 190 185 178 166 148 143 137 128 153 149 133 115 109 99 108 110 112 131 146 149 161 151 130 137 138 136 134 137 143 146 149 151 148 147 149 148 149 148 149 147 151 140 150 144 140 140 147 151
190 203 158 307 207 229 272 321 116 68 166 181 189 150 174 199 206 278 243 158 211 165 167 173 163 177 182 178 184 203 215 213 193 172 191 196 194 192 157 135 128 124 127 123 127 140 123 102 104 121 122 109 109 115 124 135 150 157 169 140 143 143 139 138 140 144 146 142 144 144 139 139 133 122 126 148 158 162 166 165 164 161 153 164 166 170
202 197 195 211 182 183 236 230 225 196 197 193 188 229 203 196 198 199 244 213 171 164 181 126 173 177 180 169 181 193 202 197 199 208 192 187 187 174 171 168 155 166 164 163 145 133 132 134 132 130 130 122 116 110 119 106 120 140 137 136 138 135 134 139 142 141 140 143 140 140 147 147 150 148 140 137 137 139 142 150 165 156 156 173 171 169
221 191 200 209 194 193 224 219 208 155 212 207 199 192 197 208 185 204 238 21 360 225 180 142 128 142 141 169 185 177 194 175 182 184 186 192 188 170 175 173 158 150 149 136 134 154 137 143 138 135 135 132 129 126 113 97 79 101 122 122 127 130 131 138 145 144 138 138 141 148 152 152 137 135 141 147 149 156 157 165 174 170 178 181 179 173
173 160 208 196 207 217 238 125 177 172 199 217 214 204 199 191 181 196 212 192 207 171 147 115 54 150 170 181 172 170 168 186 192 188 185 185 172 173 181 168 148 147 142 143 148 158 156 149 137 141 134 127 124 122 106 86 82 89 116 127 132 136 137 136 132 130 135 131 129 133 144 140 147 157 150 149 157 161 170 173 186 185 192 208 196 180
123 189 198 190 211 225 216 206 172 178 208 206 203 191 188 211 184 202 199 199 202 190 173 154 141 64 167 137 169 173 178 191 190 173 182 182 181 165 148 145 139 132 139 133 128 129 108 118 135 137 131 128 133 130 113 110 105 98 106 122 138 143 138 135 127 127 133 139 139 137 151 144 149 152 143 152 162 154 122 74 92 71 192 201 205 215
192 190 188 192 198 214 216 211 182 204 216 145 173 184 200 200 199 204 205 205 207 207 183 161 142 147 184 207 172 179 186 176 184 164 161 169 164 150 147 149 153 161 154 142 129 128 124 127 130 131 137 143 144 137 128 125 123 124 125 135 145 146 140 141 139 138 138 148 155 153 154 145 153 156 155 155 159 159 159 163 165 100 65 43 175 190